CAPE
0 0 0 0 0 0 0 0 0 0 0 0 0 0 0 0 0 0 0 0 0 0 0 4 13 8 88 186 204 215 475 677 629 268 365 315 144 52 1 10 45 33 86 140 81 423 544 343 369 195 241 196 478 409
0 0 0 0 0 0 0 0 0 0 0 0 0 0 0 0 0 0 0 0 0 0 0 0 0 0 0 2 87 245 469 538 334 325 216 41 70 10 0 230 40 295 78 116 446 489 359 526 505 149 74 3 17 68
0 0 0 0 0 0 0 0 0 0 0 0 0 0 0 0 0 0 0 0 0 0 0 1 0 0 0 0 0 43 191 184 229 361 561 141 120 22 58 156 12 26 68 455 396 399 587 100 68 171 79 21 143 457
0 0 0 0 0 0 0 0 0 0 0 0 0 0 0 0 0 0 0 0 0 0 1 31 2 0 0 0 0 0 11 55 28 327 422 310 205 46 17 73 93 41 188 267 689 578 349 461 320 228 149 203 164 522
0 0 0 0 0 0 0 0 0 0 0 0 0 0 0 0 0 0 0 0 0 0 0 0 0 0 1 0 0 0 0 0 93 203 354 353 156 75 79 80 47 143 424 506 713 484 620 337 188 112 93 191 349 926
0 0 0 0 0 0 0 0 0 0 0 0 0 0 0 0 0 0 0 0 0 0 0 3 20 0 0 0 0 0 0 0 13 47 6 97 46 39 37 489 493 346 488 479 370 398 243 196 185 56 55 150 228 512
0 0 0 0 0 0 0 0 0 0 0 0 0 0 0 0 0 0 0 0 0 0 0 1 203 20 8 0 0 0 8 1 26 12 84 173 42 179 31 314 362 394 291 237 267 216 139 76 35 22 16 58 128 642
0 0 0 0 0 0 0 0 0 0 0 0 0 0 0 0 0 0 0 0 0 0 0 14 122 90 5 2 33 72 45 4 74 28 98 171 246 198 342 246 239 150 140 79 3 0 0 0 233 310 318 262 280 696
0 0 0 0 0 0 0 0 0 0 0 0 0 0 0 0 0 13 0 0 0 0 0 72 50 84 16 27 65 30 2 0 0 49 27 79 168 272 377 175 134 17 0 0 0 0 0 0 61 161 262 275 90 398
0 0 0 0 0 0 0 0 0 0 0 0 0 0 11 13 0 0 0 2 1 13 0 10 16 81 3 9 41 59 57 6 28 45 105 36 144 243 98 32 12 0 0 0 0 0 0 0 0 18 139 82 0 155
0 0 0 0 0 0 0 0 0 0 0 0 0 0 0 0 0 18 132 266 246 212 74 8 36 21 19 23 46 43 38 80 43 96 54 84 306 141 80 56 75 19 0 0 0 2 3 3 0 1 4 12 1 231
0 0 0 0 0 0 0 0 0 0 0 0 0 0 0 0 11 49 92 170 227 87 195 50 32 24 142 24 10 37 10 34 7 143 110 104 323 311 42 43 111 16 0 0 0 0 0 1 0 2 21 20 0 107
0 0 0 0 0 0 0 0 0 0 0 0 0 0 14 22 20 20 11 143 235 187 127 91 43 209 75 14 28 82 10 2 100 27 28 398 457 341 154 69 65 25 0 0 0 0 0 0 1 0 10 13 29 1
0 0 0 0 0 0 0 0 0 0 0 0 13 1 5 12 12 15 21 394 259 193 117 256 320 225 47 90 80 44 33 33 25 5 289 484 639 458 213 109 28 0 0 0 0 2 0 0 0 0 6 0 18 1
0 0 0 0 0 0 0 0 0 0 0 0 3 0 0 10 51 137 46 516 495 284 31 26 66 177 59 46 90 32 33 26 279 447 521 283 359 208 264 220 187 122 164 99 101 60 3 0 0 0 0 0 0 2
0 0 0 0 0 0 0 0 0 0 5 0 0 0 58 62 78 127 326 568 186 203 34 11 67 47 50 74 46 52 50 111 238 147 113 106 304 366 434 270 376 389 220 279 282 279 186 5 0 0 0 0 0 0
0 0 0 0 0 0 0 0 8 27 13 16 32 120 142 218 228 270 188 161 18 236 268 247 112 46 113 108 67 283 319 259 140 125 282 404 593 721 557 538 475 284 151 174 212 260 187 216 16 0 0 0 0 0
0 0 0 0 0 0 0 0 8 88 37 38 183 191 498 451 365 99 55 112 314 202 231 36 224 161 85 66 219 162 108 68 63 240 681 805 660 638 535 323 222 255 291 177 131 269 263 191 173 157 127 95 32 9
0 0 0 0 0 0 0 105 183 31 59 94 216 91 18 36 276 42 24 13 229 68 0 28 98 228 252 465 316 261 161 33 41 363 402 472 624 595 363 472 221 218 373 368 542 372 167 279 323 256 253 392 339 362
0 0 0 0 0 3 21 132 346 327 314 253 249 161 216 328 351 184 185 62 36 32 54 146 310 313 278 447 401 331 93 96 335 296 261 344 418 369 536 506 411 361 207 306 423 184 591 518 260 182 255 408 347 446
0 10 0 0 27 6 27 52 97 365 206 215 182 344 177 286 339 129 217 123 168 384 55 248 629 369 329 56 1 39 371 353 246 297 186 62 132 196 271 236 212 99 169 478 228 511 86 398 240 308 41 18 289 41
6 1 6 13 19 45 74 136 79 57 87 57 90 246 264 279 267 54 15 305 167 92 48 322 324 391 356 377 430 448 562 532 451 177 86 81 197 224 257 153 194 208 268 355 455 427 280 360 330 2 14 22 26 7
2 7 10 21 17 0 0 24 14 111 56 41 63 5 216 266 199 57 9 265 221 218 513 435 389 432 409 509 527 502 368 296 296 300 278 183 181 77 125 120 376 326 324 387 448 386 103 6 47 30 25 11 16 23
5 18 16 3 1 0 30 87 116 164 231 145 138 26 24 149 263 234 134 262 125 23 53 251 278 308 318 391 445 353 357 327 431 482 366 231 77 183 334 361 396 405 450 297 114 116 139 192 66 106 81 101 42 42
0 0 0 0 9 13 28 48 58 90 35 42 32 189 195 194 220 160 250 330 30 0 1 209 167 317 320 333 487 465 404 552 601 537 542 596 265 247 31 92 470 421 191 36 40 33 48 56 122 23 58 110 207 28
0 3 1 14 16 28 25 27 50 42 46 39 39 119 278 136 67 148 337 299 395 397 313 419 341 487 404 373 458 639 310 197 257 588 541 490 92 13 71 63 71 83 49 108 88 48 38 25 16 54 134 159 30 40
0 13 55 71 22 26 18 60 81 51 58 52 64 90 43 62 83 276 164 558 392 366 518 575 512 367 88 457 536 519 167 281 459 489 256 173 0 0 0 0 0 0 13 74 93 119 97 35 45 67 56 108 74 76
16 20 5 13 40 51 32 59 65 66 36 43 46 66 62 50 221 676 443 356 322 615 382 325 100 242 66 86 296 211 338 89 81 110 23 40 12 0 6 0 3 0 0 0 0 2 0 0 0 0 0 0 0 0
16 31 18 6 12 21 42 68 56 32 62 61 60 49 99 122 260 207 281 137 153 339 54 131 207 278 46 89 1 6 33 43 117 104 70 74 74 57 51 43 3 0 5 2 0 0 0 0 0 0 0 0 0 0
43 31 3 0 17 35 34 22 35 54 26 63 50 50 102 27 396 102 359 304 473 304 150 125 284 191 130 31 15 1 24 92 14 43 55 99 56 70 89 43 18 13 42 22 3 4 0 1 0 0 0 0 5 59
26 8 8 23 42 23 55 19 16 26 0 4 42 121 36 283 197 178 255 69 397 252 79 33 30 81 89 119 57 98 102 19 21 23 38 59 101 114 114 87 52 32 32 6 0 7 18 20 28 49 77 66 43 39
37 10 14 14 30 41 221 123 14 27 44 320 269 437 213 210 269 404 63 114 213 32 0 22 51 57 21 35 113 33 3 21 3 0 4 33 106 74 27 7 0 0 0 0 0 5 26 32 37 37 43 76 53 31
82 110 51 50 125 136 163 323 227 100 25 102 418 451 325 296 138 342 331 96 45 86 33 70 80 225 190 193 59 0 0 0 0 0 0 0 0 0 0 0 0 0 0 0 1 0 0 0 0 3 4 27 7 0
CIN
0 0 0 0 0 0 0 0 0 0 0 0 0 0 0 0 0 0 0 0 0 0 0 -30 -52 -16 -30 -74 -145 -31 -102 -45 -106 -59 -25 -69 -90 -90 -89 -73 -39 -72 -73 -94 -20 -63 -50 -384 -350 -95 -298 -230 -95 -60
0 0 0 0 0 0 0 0 0 0 0 0 0 0 0 0 0 0 0 0 0 0 0 0 -2 0 0 -3 -84 -255 -78 -58 -37 -88 -69 -139 -13 -24 0 -91 -244 -31 -46 -84 -84 -81 -230 -280 -320 -467 -199 -186 -472 -416
0 0 0 0 0 0 0 0 0 0 0 0 0 0 0 0 0 0 0 0 0 0 0 -19 0 0 0 0 0 -14 -55 -41 -84 -74 -108 -216 -75 -87 -232 -103 -35 -19 -171 -179 -84 -118 -143 -323 -290 -98 -197 -11 -127 -197
0 0 0 0 0 0 0 0 0 0 0 0 0 0 0 0 0 0 0 0 0 0 -14 -107 -4 0 0 0 0 0 -23 -26 -21 -71 -65 -65 -31 -62 -19 -97 -220 -130 -153 -68 -56 -104 -196 -148 -131 -85 -83 -59 -61 -38
0 0 0 0 0 0 0 0 0 0 0 0 0 0 0 0 0 0 0 0 0 0 0 0 0 0 -2 0 0 0 0 0 -92 -94 -60 -48 -33 -13 -14 -49 -6 -123 -62 -33 -62 -21 -62 -37 -46 -36 -44 -12 -14 -15
0 0 0 0 0 0 0 0 0 0 0 0 0 0 0 0 0 0 0 0 0 0 0 -6 -70 0 0 0 0 0 0 0 -97 -93 -66 -71 -55 -89 -46 -38 -35 -83 -69 -79 -64 -85 -39 -31 -42 -8 -53 -75 -60 -12
0 0 0 0 0 0 0 0 0 0 0 0 0 0 0 0 0 0 0 0 0 0 0 -5 -25 -17 -11 0 0 0 -24 -21 -48 -109 -83 -40 -16 -51 -6 -45 -61 -47 -50 -84 -88 -80 -72 -64 -29 -57 -33 -163 -62 -26
0 0 0 0 0 0 0 0 0 0 0 0 0 0 0 0 0 0 0 0 0 0 0 -20 -40 -27 -16 -17 -49 -88 -64 -37 -63 -36 -51 -36 -96 -41 -57 -16 -65 -115 -96 -111 -78 0 0 0 -50 -58 -96 -150 -122 -21
0 0 0 0 0 0 0 0 0 0 0 0 0 0 0 0 0 -101 0 0 0 0 0 -18 -20 -73 -45 -54 -79 -48 -32 0 0 -64 -46 -44 -31 -80 -48 -45 -26 -41 0 0 0 0 0 0 -95 -58 -81 -55 -47 -16
0 0 0 0 0 0 0 0 0 0 0 0 0 0 -6 -16 0 0 -9 -3 -8 -198 -7 -34 -2 -68 -30 -50 -75 -110 -87 -30 -30 -41 -76 -42 -55 -49 -91 -127 -116 0 0 0 0 0 0 0 0 -141 -69 -44 0 -57
0 0 0 0 0 0 0 0 0 0 0 0 0 0 0 0 0 -81 -92 -23 -31 -22 -63 -25 -79 -72 -79 -68 -81 -101 -87 -56 -12 -50 -38 -30 -40 -20 -66 -84 -57 -101 0 0 0 -5 -11 -6 0 -3 -5 -189 -29 -26
0 0 0 0 0 0 0 0 0 0 0 0 0 0 0 0 -10 -79 -113 -62 -42 -68 -15 -71 -70 -55 -38 -65 -59 -44 -28 -22 -8 -18 -11 -25 -8 -22 -84 -82 -46 -102 0 0 0 0 0 -1 0 -2 -10 -66 0 -11
0 0 0 0 0 0 0 0 0 0 0 0 0 0 -3 -30 -6 -4 -2 -26 -8 -28 -40 -78 -37 -24 -60 -38 -15 -26 -8 -2 -22 -12 -6 -41 -21 -36 -47 -81 -71 -73 0 0 0 0 0 0 -1 0 -8 -14 -1 -1
0 0 0 0 0 0 0 0 0 0 0 0 -7 -2 -18 -2 -4 -10 -18 -10 -30 -20 -27 -17 -15 -9 -23 -27 -28 -8 -12 -17 -4 -4 -30 -17 -9 -18 -17 -22 -47 0 0 0 0 -8 -2 0 0 0 -17 -2 -6 -2
0 0 0 0 0 0 0 0 0 0 0 0 -1 0 0 -7 -1 -24 -30 -7 -15 -24 -48 -1 -23 -14 -16 -10 -10 -6 -5 -5 -14 -2 -6 -27 -18 -17 -15 -14 -23 -29 -23 -15 -7 -7 -1 0 0 0 0 0 0 -9
0 0 0 0 0 0 0 0 0 0 -1 0 0 0 -29 0 -37 -35 -27 -9 -32 -47 -73 -7 -4 -10 -4 -7 -4 -1 -2 -11 -27 -58 -66 -62 -33 -31 -39 -27 -19 -13 -24 -21 -9 -11 -7 -1 0 0 0 0 0 0
0 0 0 0 0 0 0 0 -2 -11 -1 0 -11 -12 -6 -4 -47 -86 -108 -110 -30 -12 -38 -22 -9 -9 -9 -3 -1 -5 -15 -17 -23 -52 -55 -51 -25 -9 -6 -7 -5 -12 -27 -38 -29 -10 -11 -6 -8 0 0 0 0 0
0 0 0 0 0 0 0 0 -3 -6 -4 -5 -2 -15 -6 -25 -31 -12 -3 -7 -63 -41 -43 -45 -34 -3 -8 -3 -11 -36 -72 -128 -21 -53 -38 -23 -18 -14 -9 -15 -21 -11 -19 -24 -26 -30 -14 -14 -12 -22 -22 -31 -32 -28
0 0 0 0 0 0 0 -5 -23 -3 -4 -15 -27 -90 -32 -75 -17 -92 -99 -31 -27 -105 -6 -55 -17 -15 -21 -15 -30 -34 -46 -98 -3 -31 -29 -20 -19 -15 -26 -27 -25 -11 -15 -26 -19 -32 -51 -38 -38 -15 -58 -64 -57 -49
0 0 0 0 0 0 0 -7 -12 -4 0 -17 -10 -22 -79 -87 -26 -35 -51 0 -14 -2 -8 -19 -17 -18 -10 -45 -42 -33 -35 -94 -23 -23 -32 -43 -30 -17 -20 -26 -25 -33 -33 -39 -30 -18 -30 -30 -15 -34 -25 -48 -64 -34
0 -4 0 0 -3 -1 -5 -3 -2 -3 -9 -2 -14 -4 -36 -28 -30 -39 -18 -39 -60 -32 -40 -18 -14 -35 -82 -7 -1 -40 -24 -46 -31 -22 -29 -22 -38 -33 -43 -50 -32 -23 -34 -35 -39 -48 -16 -20 -15 -73 -62 -44 -10 -22
-3 -8 0 -1 0 -1 -4 -7 -7 -18 -1 0 -2 -8 -20 -14 -13 -47 -93 -28 -30 -82 -41 -20 -19 -33 -26 -21 -20 -10 -8 -7 -21 -34 -44 -44 -32 -31 -17 -21 -25 -31 -29 -21 -20 -42 -34 -24 -46 -31 -5 0 -2 -2
-9 -6 -3 0 -1 0 0 -7 -11 -3 -5 -18 -7 -6 -8 -12 -27 -57 -20 -33 -19 -40 -24 -24 -20 -13 -17 -12 -15 -11 -11 -12 -18 -45 -47 -18 -28 -37 -16 -23 -21 -24 -19 -28 -42 -51 -6 -8 -26 -9 -1 -26 -33 -49
-4 -1 0 -1 0 0 -1 -8 -20 -11 -5 -8 -9 -13 -46 -19 -15 -25 -12 -10 -41 -14 -18 -57 -51 -21 -17 -9 -13 -12 -17 -15 -19 -39 -51 -30 -14 -17 -23 -29 -19 -27 -25 -50 -97 -66 -48 -49 -53 -47 -51 -33 -27 -53
0 0 -1 -2 -12 -8 -2 0 -2 -4 -2 -1 -1 -17 -57 -50 -14 -10 -4 -3 -34 0 -9 -74 -52 -7 -18 -22 -12 -5 -13 -11 -36 -21 -25 -34 -29 -28 -14 -5 -28 -28 -72 -30 -82 -96 -47 -75 -49 -55 -83 -66 -38 -9
0 -9 -5 -10 -11 -1 -2 -1 0 0 -2 -2 -3 -2 -1 -3 -3 -4 -4 -10 -11 -17 -32 -12 -9 -11 -10 -21 -21 -21 -77 -89 -110 -27 -23 -45 -42 -47 -42 -44 -20 -36 -61 -52 -49 -31 -38 -34 -11 -37 -46 -21 -22 -18
0 -2 -6 -12 -9 -3 -13 -1 -2 -1 0 0 -2 -9 -2 -3 0 -7 -62 -19 -30 -29 -20 -19 -10 -6 -51 -21 -16 -23 -46 -72 -49 -52 -36 -47 -3 0 0 0 0 0 -14 -37 -35 -28 -28 -41 -42 -35 -41 -50 -73 -22
-1 -7 -11 -9 -7 -4 -3 -3 -6 0 -4 -8 -13 -2 -1 -1 -1 -7 -6 -16 -16 -10 -22 -32 -20 -9 -24 -53 -46 -77 -21 -30 -18 -22 -29 -24 -22 0 -48 -2 -46 0 0 0 -4 -24 0 0 0 0 0 0 0 -3
-2 -2 -3 -12 -3 -1 -1 -3 -5 -4 -6 -8 -9 -6 -2 -11 -14 -52 -61 -1 -20 -3 -6 -8 -38 -9 -49 -111 -2 -14 -102 -42 -17 -19 -21 -17 -25 -29 -26 -29 -5 -1 -3 -42 0 0 0 0 0 0 0 0 0 0
-1 -3 -11 0 -1 -1 0 -1 -15 -22 -60 -43 -14 -13 -5 -59 -34 -80 -65 -90 -11 -51 -45 -18 -5 -17 -7 -23 -3 -2 -39 -39 -41 -18 -26 -14 -20 -26 -32 -28 -33 -30 -32 -28 -39 -22 -2 -3 -4 -2 0 -2 -14 -34
-3 -7 -1 0 -5 -39 -10 -89 -42 -97 0 -2 -26 -38 -11 -22 -22 -39 -97 -103 -13 -9 -6 -4 -15 -5 -5 -7 -13 -12 -22 -14 -3 -18 -8 -7 -15 -38 -41 -53 -30 -36 -27 -21 -1 -29 -11 -14 -21 -23 -12 -8 -15 -9
-10 -9 -8 -4 -1 -2 -11 -75 -85 -48 -6 -2 -15 -7 -13 -15 -21 -26 -33 -4 -3 -2 -1 -8 -7 -6 -5 -23 -7 -37 -3 -25 -11 -1 -6 -15 -6 -31 -46 -30 -2 -2 0 0 0 -18 -9 -7 -15 -10 -6 -17 -14 -10
0 -2 -3 -4 -1 -2 -72 -39 -42 -36 -64 -23 -2 -7 -6 -4 -7 -8 -14 -37 -13 -44 -20 -35 -22 -4 -16 -18 -13 0 0 0 0 0 0 0 0 0 0 0 0 0 0 0 -12 -1 0 0 0 -20 -14 -8 -17 -4
Wind_Speed
nan nan nan nan nan nan nan nan nan nan nan nan nan nan nan nan nan nan nan nan nan nan nan nan nan nan nan 22 19 14 24 21 29 41 36 31 29 nan nan nan nan nan nan 40 nan 40 38 32 32 36 35 35 45 43
nan nan nan nan nan nan nan nan nan nan nan nan nan nan nan nan nan nan nan nan nan nan nan nan nan nan nan nan nan 22 24 21 32 39 23 nan nan nan nan 19 nan 17 nan 33 39 36 37 31 26 28 nan nan nan nan
nan nan nan nan nan nan nan nan nan nan nan nan nan nan nan nan nan nan nan nan nan nan nan nan nan nan nan nan nan nan 26 24 27 22 22 18 20 nan nan 16 nan nan nan 35 22 19 21 33 nan 23 nan nan 26 38
nan nan nan nan nan nan nan nan nan nan nan nan nan nan nan nan nan nan nan nan nan nan nan nan nan nan nan nan nan nan nan nan nan 21 20 26 25 nan nan nan nan nan 21 14 21 25 25 25 12 5 6 10 10 10
nan nan nan nan nan nan nan nan nan nan nan nan nan nan nan nan nan nan nan nan nan nan nan nan nan nan nan nan nan nan nan nan nan 25 26 24 35 nan nan nan nan 25 24 16 26 28 30 34 21 20 nan 22 19 21
nan nan nan nan nan nan nan nan nan nan nan nan nan nan nan nan nan nan nan nan nan nan nan nan nan nan nan nan nan nan nan nan nan nan nan nan nan nan nan 38 32 27 29 27 25 25 28 26 25 nan nan 25 24 22
nan nan nan nan nan nan nan nan nan nan nan nan nan nan nan nan nan nan nan nan nan nan nan nan 11 nan nan nan nan nan nan nan nan nan nan 29 nan 33 nan 38 34 31 28 33 30 27 27 nan nan nan nan nan 31 35
nan nan nan nan nan nan nan nan nan nan nan nan nan nan nan nan nan nan nan nan nan nan nan nan 12 nan nan nan nan nan nan nan nan nan nan 30 29 30 33 31 30 30 29 nan nan nan nan nan 30 35 33 32 26 27
nan nan nan nan nan nan nan nan nan nan nan nan nan nan nan nan nan nan nan nan nan nan nan nan nan nan nan nan nan nan nan nan nan nan nan nan 29 31 27 31 30 nan nan nan nan nan nan nan nan 31 30 32 nan 25
nan nan nan nan nan nan nan nan nan nan nan nan nan nan nan nan nan nan nan nan nan nan nan nan nan nan nan nan nan nan nan nan nan nan 27 nan 33 32 nan nan nan nan nan nan nan nan nan nan nan nan 28 nan nan 24
nan nan nan nan nan nan nan nan nan nan nan nan nan nan nan nan nan nan 15 14 12 12 nan nan nan nan nan nan nan nan nan nan nan nan nan nan 32 29 nan nan nan nan nan nan nan nan nan nan nan nan nan nan nan 32
nan nan nan nan nan nan nan nan nan nan nan nan nan nan nan nan nan nan nan 17 15 nan 15 nan nan nan 17 nan nan nan nan nan nan 17 18 25 25 25 nan nan 36 nan nan nan nan nan nan nan nan nan nan nan nan 36
nan nan nan nan nan nan nan nan nan nan nan nan nan nan nan nan nan nan nan 20 16 15 18 nan nan 20 nan nan nan nan nan nan 18 nan nan 25 26 28 31 nan nan nan nan nan nan nan nan nan nan nan nan nan nan nan
nan nan nan nan nan nan nan nan nan nan nan nan nan nan nan nan nan nan nan 25 20 20 17 19 19 19 nan nan nan nan nan nan nan nan 27 24 26 29 32 32 nan nan nan nan nan nan nan nan nan nan nan nan nan nan
nan nan nan nan nan nan nan nan nan nan nan nan nan nan nan nan nan 30 nan 26 27 24 nan nan nan 20 nan nan nan nan nan nan 22 24 24 25 24 26 27 27 28 28 27 nan 26 nan nan nan nan nan nan nan nan nan
nan nan nan nan nan nan nan nan nan nan nan nan nan nan nan nan nan 24 26 25 31 26 nan nan nan nan nan nan nan nan nan 19 20 22 18 20 25 23 27 27 24 20 20 20 23 23 21 nan nan nan nan nan nan nan
nan nan nan nan nan nan nan nan nan nan nan nan nan 20 16 22 33 33 29 28 nan 16 19 20 22 nan 20 16 nan 20 17 18 20 23 22 22 21 26 20 22 19 18 16 18 22 21 18 19 nan nan nan nan nan nan
nan nan nan nan nan nan nan nan nan nan nan nan 8 11 18 29 26 nan nan 18 16 28 26 nan 18 21 nan nan 18 20 13 nan nan 15 20 23 27 25 25 27 17 19 21 20 16 14 16 14 12 11 12 nan nan nan
nan nan nan nan nan nan nan 20 17 nan nan nan 6 nan nan nan 28 nan nan nan 32 nan nan nan nan 17 15 15 19 21 16 nan nan 8 17 21 25 24 17 12 14 15 13 12 11 12 14 13 14 14 15 16 16 17
nan nan nan nan nan nan nan 13 10 5 3 0 9 9 9 12 17 15 25 nan nan nan nan 8 11 13 14 20 22 25 nan nan 20 19 17 14 14 17 14 11 14 13 16 14 13 15 12 13 19 14 18 18 17 14
nan nan nan nan nan nan nan nan nan 7 5 1 2 6 5 1 10 8 12 11 6 8 nan 14 12 18 22 nan nan nan 23 21 19 16 14 nan 17 19 16 15 14 nan 13 15 15 11 nan 16 15 13 nan nan 16 nan
nan nan nan nan nan nan nan 16 nan nan nan nan nan 3 7 3 7 nan nan 7 10 nan nan 9 11 16 16 15 13 14 13 12 15 13 nan nan 13 11 12 13 12 13 16 17 17 16 14 17 19 nan nan nan nan nan
nan nan nan nan nan nan nan nan nan 11 nan nan nan nan 6 8 10 nan nan 8 9 9 13 14 12 11 10 9 12 10 8 9 10 11 9 11 12 nan 11 15 16 18 16 13 12 12 13 nan nan nan nan nan nan nan
nan nan nan nan nan nan nan nan 9 7 7 5 6 nan nan 7 4 4 4 3 3 nan nan 11 7 8 6 11 11 9 9 10 9 7 8 7 nan 4 10 11 13 16 14 15 15 13 13 14 nan 13 nan 7 nan nan
nan nan nan nan nan nan nan nan nan nan nan nan nan 9 10 7 4 5 3 4 nan nan nan 6 3 6 5 3 3 4 1 3 3 3 2 4 3 4 nan nan 8 9 6 nan nan nan nan nan 10 nan nan 9 4 nan
nan nan nan nan nan nan nan nan nan nan nan nan nan 3 5 4 nan 5 7 8 6 7 6 3 1 1 4 5 3 1 4 7 5 3 3 4 nan nan nan nan nan nan nan 9 nan nan nan nan nan nan 4 14 nan nan
nan nan nan nan nan nan nan nan nan nan nan nan nan nan nan nan nan 5 6 5 8 8 6 3 5 4 nan 1 3 2 1 1 4 3 6 9 nan nan nan nan nan nan nan nan nan 15 nan nan nan nan nan 13 nan nan
nan nan nan nan nan nan nan nan nan nan nan nan nan nan nan nan 4 6 6 6 5 3 1 2 1 2 nan nan 5 7 5 nan nan 11 nan nan nan nan nan nan nan nan nan nan nan nan nan nan nan nan nan nan nan nan
nan nan nan nan nan nan nan nan nan nan nan nan nan nan nan 5 5 6 4 4 6 5 nan 3 2 4 nan nan nan nan nan nan 10 8 nan nan nan nan nan nan nan nan nan nan nan nan nan nan nan nan nan nan nan nan
nan nan nan nan nan nan nan nan nan nan nan nan nan nan 10 nan 2 5 3 2 2 3 1 2 3 2 2 nan nan nan nan nan nan nan nan nan nan nan nan nan nan nan nan nan nan nan nan nan nan nan nan nan nan nan
nan nan nan nan nan nan nan nan nan nan nan nan nan 5 nan 5 5 3 2 nan 4 2 nan nan nan nan nan 4 nan nan 5 nan nan nan nan nan 5 5 5 nan nan nan nan nan nan nan nan nan nan nan nan nan nan nan
nan nan nan nan nan nan 13 13 nan nan nan 15 10 6 4 2 2 1 nan 5 5 nan nan nan nan nan nan nan 2 nan nan nan nan nan nan nan 7 nan nan nan nan nan nan nan nan nan nan nan nan nan nan nan nan nan
nan 12 nan nan 6 8 14 19 18 19 nan 14 13 9 7 5 5 4 7 nan nan nan nan nan nan 11 6 8 nan nan nan nan nan nan nan nan nan nan nan nan nan nan nan nan nan nan nan nan nan nan nan nan nan nan
Wind_Direction
nan nan nan nan nan nan nan nan nan nan nan nan nan nan nan nan nan nan nan nan nan nan nan nan nan nan nan 211 218 200 212 207 223 213 215 234 254 nan nan nan nan nan nan 204 nan 229 228 240 228 248 259 253 249 237
nan nan nan nan nan nan nan nan nan nan nan nan nan nan nan nan nan nan nan nan nan nan nan nan nan nan nan nan nan 220 221 230 234 243 245 nan nan nan nan 269 nan 201 nan 236 228 237 247 247 270 274 nan nan nan nan
nan nan nan nan nan nan nan nan nan nan nan nan nan nan nan nan nan nan nan nan nan nan nan nan nan nan nan nan nan nan 237 234 240 262 272 269 261 nan nan 249 nan nan nan 258 224 244 256 262 nan 271 nan nan 254 262
nan nan nan nan nan nan nan nan nan nan nan nan nan nan nan nan nan nan nan nan nan nan nan nan nan nan nan nan nan nan nan nan nan 242 254 264 260 nan nan nan nan nan 230 258 259 264 235 257 251 318 247 205 262 273
nan nan nan nan nan nan nan nan nan nan nan nan nan nan nan nan nan nan nan nan nan nan nan nan nan nan nan nan nan nan nan nan nan 240 248 252 265 nan nan nan nan 300 290 282 283 282 283 280 256 258 nan 265 253 259
nan nan nan nan nan nan nan nan nan nan nan nan nan nan nan nan nan nan nan nan nan nan nan nan nan nan nan nan nan nan nan nan nan nan nan nan nan nan nan 276 281 268 273 274 274 275 279 280 278 nan nan 250 257 270
nan nan nan nan nan nan nan nan nan nan nan nan nan nan nan nan nan nan nan nan nan nan nan nan 237 nan nan nan nan nan nan nan nan nan nan 246 nan 258 nan 262 275 276 266 262 258 250 247 nan nan nan nan nan 236 258
nan nan nan nan nan nan nan nan nan nan nan nan nan nan nan nan nan nan nan nan nan nan nan nan 254 nan nan nan nan nan nan nan nan nan nan 246 253 260 263 272 268 256 259 nan nan nan nan nan 256 253 257 255 252 275
nan nan nan nan nan nan nan nan nan nan nan nan nan nan nan nan nan nan nan nan nan nan nan nan nan nan nan nan nan nan nan nan nan nan nan nan 263 261 273 266 270 nan nan nan nan nan nan nan nan 251 251 248 nan 256
nan nan nan nan nan nan nan nan nan nan nan nan nan nan nan nan nan nan nan nan nan nan nan nan nan nan nan nan nan nan nan nan nan nan 257 nan 261 273 nan nan nan nan nan nan nan nan nan nan nan nan 250 nan nan 257
nan nan nan nan nan nan nan nan nan nan nan nan nan nan nan nan nan nan 304 303 297 287 nan nan nan nan nan nan nan nan nan nan nan nan nan nan 267 278 nan nan nan nan nan nan nan nan nan nan nan nan nan nan nan 255
nan nan nan nan nan nan nan nan nan nan nan nan nan nan nan nan nan nan nan 292 297 nan 269 nan nan nan 264 nan nan nan nan nan nan 258 263 270 272 274 nan nan 269 nan nan nan nan nan nan nan nan nan nan nan nan 266
nan nan nan nan nan nan nan nan nan nan nan nan nan nan nan nan nan nan nan 291 285 275 280 nan nan 267 nan nan nan nan nan nan 265 nan nan 266 281 278 276 nan nan nan nan nan nan nan nan nan nan nan nan nan nan nan
nan nan nan nan nan nan nan nan nan nan nan nan nan nan nan nan nan nan nan 281 281 274 272 268 265 264 nan nan nan nan nan nan nan nan 268 282 281 279 274 275 nan nan nan nan nan nan nan nan nan nan nan nan nan nan
nan nan nan nan nan nan nan nan nan nan nan nan nan nan nan nan nan 266 nan 270 268 272 nan nan nan 261 nan nan nan nan nan nan 265 269 267 272 278 276 277 273 271 262 260 nan 269 nan nan nan nan nan nan nan nan nan
nan nan nan nan nan nan nan nan nan nan nan nan nan nan nan nan nan 257 252 257 261 257 nan nan nan nan nan nan nan nan nan 265 274 273 273 269 244 283 275 267 265 265 269 275 275 278 280 nan nan nan nan nan nan nan
nan nan nan nan nan nan nan nan nan nan nan nan nan 276 253 242 234 235 244 240 nan 216 243 243 264 nan 261 261 nan 261 254 259 270 278 267 264 259 279 284 277 276 275 276 276 294 287 277 276 nan nan nan nan nan nan
nan nan nan nan nan nan nan nan nan nan nan nan 261 250 243 225 234 nan nan 191 226 229 243 nan 228 249 nan nan 253 256 253 nan nan 238 267 277 277 277 273 276 275 288 282 277 271 271 280 278 294 305 297 nan nan nan
nan nan nan nan nan nan nan 323 324 nan nan nan 228 nan nan nan 231 nan nan nan 231 nan nan nan nan 230 248 250 269 269 251 nan nan 267 282 296 297 298 301 292 278 279 282 272 260 276 277 296 293 284 305 307 302 301
nan nan nan nan nan nan nan 353 342 5 22 113 241 242 286 322 242 266 255 nan nan nan nan 274 237 245 257 262 263 268 nan nan 250 275 284 287 281 302 311 299 282 267 267 255 256 259 280 284 283 296 286 295 299 296
nan nan nan nan nan nan nan nan nan 8 27 27 165 207 162 278 260 270 272 214 252 232 nan 256 274 280 281 nan nan nan 251 257 266 275 288 nan 281 279 264 257 265 nan 280 272 267 270 nan 286 288 284 nan nan 295 nan
nan nan nan nan nan nan nan 57 nan nan nan nan nan 55 58 158 220 nan nan 251 267 nan nan 272 277 272 274 281 283 277 269 249 243 247 nan nan 265 254 257 262 263 263 263 264 276 272 274 277 287 nan nan nan nan nan
nan nan nan nan nan nan nan nan nan 52 nan nan nan nan 71 106 163 nan nan 172 230 244 250 268 272 251 248 261 266 266 261 258 254 233 243 265 259 nan 284 285 289 276 271 270 275 283 285 nan nan nan nan nan nan nan
nan nan nan nan nan nan nan nan 6 34 39 28 35 nan nan 52 52 323 261 241 192 nan nan 180 225 205 226 255 256 253 251 242 249 222 240 251 nan 272 299 311 308 283 269 261 247 248 251 248 nan 270 nan 284 nan nan
nan nan nan nan nan nan nan nan nan nan nan nan nan 1 23 9 17 270 280 285 nan nan nan 99 118 245 261 264 267 262 239 204 190 187 247 2 25 44 nan nan 0 7 351 nan nan nan nan nan 269 nan nan 225 263 nan
nan nan nan nan nan nan nan nan nan nan nan nan nan 55 60 49 nan 308 338 359 347 2 36 81 3 322 300 301 313 294 140 126 156 132 95 47 nan nan nan nan nan nan nan 321 nan nan nan nan nan nan 255 291 nan nan
nan nan nan nan nan nan nan nan nan nan nan nan nan nan nan nan nan 350 31 3 343 8 28 4 347 346 nan 159 253 203 148 37 7 92 152 165 nan nan nan nan nan nan nan nan nan 356 nan nan nan nan nan 331 nan nan
nan nan nan nan nan nan nan nan nan nan nan nan nan nan nan nan 352 19 26 45 357 7 67 334 202 157 nan nan 214 199 174 nan nan 111 nan nan nan nan nan nan nan nan nan nan nan nan nan nan nan nan nan nan nan nan
nan nan nan nan nan nan nan nan nan nan nan nan nan nan nan 342 333 350 33 20 38 0 nan 100 144 218 nan nan nan nan nan nan 151 202 nan nan nan nan nan nan nan nan nan nan nan nan nan nan nan nan nan nan nan nan
nan nan nan nan nan nan nan nan nan nan nan nan nan nan 344 nan 339 345 335 120 330 323 91 161 279 187 238 nan nan nan nan nan nan nan nan nan nan nan nan nan nan nan nan nan nan nan nan nan nan nan nan nan nan nan
nan nan nan nan nan nan nan nan nan nan nan nan nan 273 nan 321 303 294 348 nan 84 24 nan nan nan nan nan 158 nan nan 49 nan nan nan nan nan 19 335 335 nan nan nan nan nan nan nan nan nan nan nan nan nan nan nan
nan nan nan nan nan nan 344 339 nan nan nan 14 331 301 337 266 247 27 nan 6 319 nan nan nan nan nan nan nan 196 nan nan nan nan nan nan nan 336 nan nan nan nan nan nan nan nan nan nan nan nan nan nan nan nan nan
nan 155 nan nan 55 22 359 360 355 3 nan 11 0 356 341 327 277 232 264 nan nan nan nan nan nan 151 161 127 nan nan nan nan nan nan nan nan nan nan nan nan nan nan nan nan nan nan nan nan nan nan nan nan nan nan